Tracking 31027 objects as of 19-Jul-2025
HD Live streaming from Space Station
objects crossing your sky now

COSMOS 2292

Track COSMOS 2292 now!
10-day predictions
COSMOS 2292 is classified as:


NORAD ID: 23278
Int'l Code: 1994-061A
Perigee: 399.8 km
Apogee: 1,624.4 km
Inclination: 83.0 °
Period: 105.2 minutes
Semi major axis: 7383 km
RCS: 2.958 m2 (large)
Launch date: September 27, 1994
Source: Commonwealth of Independent States (former USSR) (CIS)
Launch site: PLESETSK MISSILE AND SPACE COMPLEX (PKMTR)
Your satellite tracking list
MAROC TUBSAT
Track 1 satellite(s)




NASA's NSSDC Master Catalog

Two Line Element Set (TLE):
1 23278U 94061A   25199.88510613  .00004884  00000-0  40387-3 0  9999
2 23278  82.9737 159.6930 0829322   9.1104 352.4082 13.68504274512376
Source of the keplerian elements: AFSPC